Regional Weather Roundup
Issued by NWS

Current Version | Previous Version | Text Only | Print | Product List | Glossary Off
Versions: 1 2 3 4 5 6 7 8 9 10 11 12 13 14 15 16 17 18 19 20 21 22 23 24 25 26 27 28 29 30 31 32 33 34 35 36 37 38 39 40 41 42 43 44 45 46 47 48 49 50

000
ASUS44 KMEG 070510
RWRTN
TENNESSEE HOURLY STATE WEATHER ROUNDUP
NATIONAL WEATHER SERVICE MEMPHIS TN
1100 PM CST FRI DEC 06 2019

TNZ002-004-019-021-049-052-054-088>092-070600-
WEST TENNESSEE

CITY           SKY/WX    TMP DP  RH WIND       PRES   REMARKS
MEMPHIS INTL   CLOUDY    43  40  89 N6        30.31R FOG
NWS MEMPHIS      N/A     42 N/A N/A MISG        N/A
JACKSON        MOCLDY    42  39  89 N9        30.30R
DYERSBURG      CLOUDY    43  39  86 N10       30.33R
SOMERVILLE     CLOUDY    45  41  87 N8        30.28R
COVINGTON      CLOUDY    43  41  93 N6        30.32R
UNION CITY     CLOUDY    43  37  81 N13       30.31R
BOLIVAR        CLOUDY    45  41  87 N6        30.28R
PARIS          CLOUDY    43  39  87 N10       30.29R
HUNTINGDON     PTCLDY    43  41  93 VRB7      30.28S FOG
LEXINGTON      CLEAR     45  43  93 VRB6G13   30.26R
SELMER         CLOUDY    46  46 100 N7        30.24S
SAVANNAH       CLOUDY    46  46 100 N3        30.24R FOG
$$

TNZ008-025-027-028-033-062-065-066-070600-
NORTH MIDDLE TENNESSEE

CITY           SKY/WX    TMP DP  RH WIND       PRES   REMARKS
NASHVILLE      CLOUDY    51  40  65 N8        30.25S
DICKSON        CLOUDY    45  41  87 N12       30.25R
PORTLAND       CLOUDY    48  43  81 N8        30.26R
CLARKSVILLE    CLOUDY    44  39  82 N7        30.29R
LEBANON        CLOUDY    45  41  87 CALM      30.24R
SMYRNA         FAIR      42  39  89 N8        30.26R
MURFREESBORO   CLOUDY    50  41  71 N6        30.22S
COOKEVILLE     MOCLDY    36  34  93 N3        30.23R
LIVINGSTON     PTCLDY    45  39  81 N8        30.23R
GALLATIN       CLOUDY    50  43  76 N6        30.28R
CROSSVILLE     FAIR      44  38  79 NE3       30.22S
ROCKWOOD       CLOUDY    46  39  76 N6        30.21R
$$

TNZ061-075-076-078-094-096-097-070600-
SOUTH MIDDLE TENNESSEE

CITY           SKY/WX    TMP DP  RH WIND       PRES   REMARKS
LAWRENCEBURG   CLOUDY    45  43  93 N3        30.22S
LEWISBURG      CLOUDY    39  39 100 CALM      30.23R
FAYETTEVILLE   PTCLDY    48  43  81 N8        30.20S
TULLAHOMA      CLOUDY    41  39  93 CALM      30.21S
WINCHESTER     CLOUDY    48  43  81 CALM      30.20S
MCMINNVILLE    MOCLDY    46  39  76 NE6       30.21F
COLUMBIA       CLOUDY    48  48 100 CALM      30.22R
SHELBYVILLE    CLOUDY    45  41  87 CALM      30.22S
$$

TNZ017-018-042-046-047-070600-
NORTHEAST TENNESSEE

CITY           SKY/WX    TMP DP  RH WIND       PRES   REMARKS
TRI CITIES     CLOUDY    44  39  82 CALM      30.22R
ELIZABETHTON   CLOUDY    45  41  87 CALM      30.21R
GREENEVILLE    CLOUDY    45  34  65 CALM      30.20S
$$

TNZ012-013-036-069-073-074-070600-
CENTRAL EAST TENNESSEE

CITY           SKY/WX    TMP DP  RH WIND       PRES   REMARKS
KNOXVILLE      FAIR      45  36  70 N6        30.20F
OAK RIDGE      MOCLDY    45  39  79 CALM      30.23S
DOWNTOWN KNOXV CLOUDY    45  39  81 CALM      30.22S
GATLINBURG     CLOUDY    41  36  81 CALM      30.21S
MORRISTOWN     CLOUDY    45  39  81 CALM      30.20S
JACKSBORO      PTCLDY    39  39 100 CALM      30.26R
$$

TNZ083-085-099-070600-
SOUTHEAST TENNESSEE

CITY           SKY/WX    TMP DP  RH WIND       PRES   REMARKS
CHATTANOOGA    CLOUDY    49  45  86 CALM      30.21F
DAYTON         CLEAR     45  41  87 CALM      30.21S
$$

SKY/WX REPORTED AS FAIR MEANS FEW OR NO CLOUDS BELOW
12 THOUSAND FEET.




USA.gov is the U.S. government's official web portal to all federal, state and local government web resources and services.